Flag for U.S.A. Weather past 2 weeks in Harrisburg, Pennsylvania, U.S.A.

Now
55 °F

Sunny.


Feels Like: 52 °F
Forecast: 41 / 61 °F
Wind: 13 mph from Southeast

Location: Capital City Airport


UV Index: 5 (Moderate)

Visibility: 10 mi


Pressure: 30.46 "Hg

Humidity: 49%

Dew point: 36 °F

Location of HarrisburgLocation

Historic Weather in Harrisburg

°F

Harrisburg temperature yesterday

Maximum temperature yesterday: 64 °F (at 5:56 PM)
Minimum temperature yesterday: 37 °F (at 5:56 AM)
Average temperature yesterday: 53 °F

Past Weeks' High & Low Weather Summary

 TemperatureHumidityPressure
High84 °F (Apr 13, 3:56 PM)100% (Apr 11, 11:56 PM)30.68 "Hg (Apr 11, 11:56 PM)
Low29 °F (Apr 6, 5:56 AM)18% (Apr 19, 12:56 PM)29.48 "Hg (Apr 8, 6:56 AM)
Average52 °F57%30.09 "Hg
* Reported Apr 5 9:56 AM — Apr 20 9:56 AM, Harrisburg, Weather by CustomWeather, © 2014

Note: Actual official high and low records may vary slightly from our data, if they occured in-between our weather recording intervals... More about our weather records

Advertising

Historic Weather Conditions — Data for Previous 24 hours

 ConditionsComfort  
Time TempWeatherWind HumidityBarometerVisibility
9:56 AM
Apr 20
53 °FSunny.14 mph48%30.45 "Hg10 mi
8:56 AM50 °FSunny.10 mph46%30.43 "Hg10 mi
7:56 AM47 °FSunny.7 mph48%30.43 "Hg10 mi
6:56 AM44 °FClear.3 mph53%30.42 "Hg10 mi
5:56 AM44 °FClear.6 mph55%30.40 "Hg10 mi
4:56 AM40 °FClear.No wind68%30.38 "Hg10 mi
3:56 AM40 °FClear.No wind70%30.37 "Hg10 mi
2:56 AM43 °FClear.No wind60%30.36 "Hg10 mi
1:56 AM43 °FClear.No wind60%30.37 "Hg10 mi
12:56 AM44 °FClear.No wind53%30.36 "Hg10 mi
11:56 PM
Apr 19
46 °FClear.No wind50%30.34 "Hg10 mi
10:56 PM48 °FClear.No wind46%30.34 "Hg10 mi
9:56 PM57 °FClear.8 mph25%30.33 "Hg10 mi
8:56 PM59 °FClear.6 mph24%30.31 "Hg10 mi
7:56 PM61 °FSunny.7 mph21%30.29 "Hg10 mi
6:56 PM63 °FSunny.8 mph19%30.28 "Hg10 mi
5:56 PM64 °FSunny.7 mph22%30.28 "Hg10 mi
4:56 PM63 °FSunny.9 mph25%30.27 "Hg10 mi
3:56 PM63 °FSunny.13 mph24%30.27 "Hg10 mi
2:56 PM62 °FSunny.13 mph22%30.28 "Hg10 mi
1:56 PM62 °FSunny.17 mph20%30.29 "Hg10 mi
12:56 PM62 °FSunny.13 mph18%30.29 "Hg10 mi
11:56 AM61 °FSunny.10 mph29%30.32 "Hg10 mi
Weather by CustomWeather, © 2014

See weather overview